Accueil
METAR-TAF:

METAR-TAF

Aéroports :

Morrisville-Stowe State Airport

Morrisville, Vermont, États-Unis

latitude: 44-32-10N, longitude: 072-36-58W, altitude: 223 m

Observation

Le bulletin a été fait il y a 40 minutes, à 02:54 UTC
Vent 3 kt de sud
Température -5°C
Humidité 86%
Pression 1023 hPa
Visibilité: 16.1 km
Ciel couvert à une hauteur de 4800 ft

METAR: KMVL 190254Z AUTO 18003KT 10SM OVC048 M05/M07 A3022 RMK AO2 SLP246 T10501072 58012 $

Heure: 22:34 (03:34 UTC)


TAF: absent

Observations et prévisions météorologiques de plus de 4000 aéroports (messages METAR et TAF).

Les stations disponibles sont représentées par des disques jaunes et rouges sur la carte.

Passer la souris dessus pour voir le nom de la station.

Cliquer dessus pour voir les observations et prévisions météorologiques.

Pour changer de carte: cliquez sur les boutons verts avec une croix noire pour zoomer, sur le bouton vert avec un tiret pour effectuer un zoom arrière, ou sur les flèches vertes pour les cartes adjacentes.


METAR-TAF: